Location: Recife
(8.0585°S, 34.8848°W)
Time: 06:23:20
(UTC-03:00)

Vanguard 3 - Pass Details

Date: 16 April 2026
Orbit: 507 x 3205 km, 33.4° (Epoch: 13 May)

Event Time Altitude Azimuth Distance (km) Brightness Sun altitude
Rises 11:19:41 0° 251° (WSW) 6,365 11.7 71.7°
Reaches altitude 10° 11:24:38 10° 241° (WSW) 5,664 11.5 71.6°
Maximum altitude 11:39:45 30° 186° (S) 4,653 11.2 71.0°
Drops below altitude 10° 11:55:17 10° 130° (SE) 5,800 11.4 69.6°
Sets 12:00:28 0° 120° (ESE) 6,530 11.6 69.0°
